Wind_Speed
20 29 36 34 30 27 22 24 30 30 27 28 30 35 34 26 19 23 25 23 21 24 26 27 24 24 18 19 16 16 14 14 15 14 11 6 5 8 13 18 21 21 25 29
17 27 29 25 28 26 25 31 39 37 32 25 28 29 28 28 27 26 27 28 26 22 26 29 28 26 18 17 16 15 13 14 12 10 9 8 8 8 13 15 16 17 19 29
17 13 14 29 27 30 36 36 35 36 39 34 32 30 29 27 28 28 27 27 26 24 25 32 32 26 21 17 15 15 12 14 10 8 6 7 3 4 9 11 16 7 4 21
17 25 29 35 35 38 37 29 26 31 21 21 22 22 30 27 29 30 30 33 31 28 28 28 32 27 22 18 16 15 13 12 9 6 4 3 5 5 7 9 8 9 7 17
13 12 20 22 35 37 39 30 25 23 22 25 40 25 30 26 32 31 25 31 31 32 30 28 27 25 24 20 17 15 14 11 8 4 3 4 4 8 7 15 18 16 13 16
21 21 24 20 7 27 31 30 23 22 19 13 41 20 20 33 33 26 20 19 29 26 33 31 31 26 28 23 18 15 13 11 7 4 2 2 3 4 5 16 24 21 14 11
20 28 31 23 22 15 18 14 7 8 7 8 8 23 32 19 27 28 20 27 27 21 29 30 32 31 30 21 16 14 13 10 7 5 3 1 2 1 4 12 17 21 17 14
4 9 6 15 25 11 14 25 5 4 3 3 16 12 23 29 15 19 13 14 20 19 24 27 29 26 25 22 18 14 13 10 9 6 4 2 2 3 1 7 20 18 13 10
5 7 2 6 13 16 13 17 25 10 9 3 8 10 30 11 19 17 20 15 15 14 18 24 25 21 22 22 18 13 13 12 11 9 7 3 1 2 2 2 10 17 19 18
9 14 7 10 10 17 24 4 13 7 3 4 8 13 3 10 11 19 15 15 15 11 14 20 19 21 15 12 18 17 16 13 13 12 11 7 5 3 2 1 2 7 12 18
12 20 11 10 10 13 15 18 9 9 6 2 3 5 6 12 8 11 16 15 14 17 14 8 22 17 15 17 16 18 19 17 15 15 14 12 9 7 6 5 5 5 8 8
9 8 22 27 13 14 18 21 21 6 7 7 1 5 4 12 10 9 17 15 12 9 7 5 10 13 17 14 14 15 19 22 19 16 16 15 14 12 11 9 8 10 11 13
7 6 6 7 4 10 15 20 22 24 8 15 3 3 6 9 6 8 11 12 5 12 12 8 1 10 15 16 13 14 15 20 23 18 18 18 17 16 14 13 13 13 13 14
17 7 6 6 11 8 7 13 23 25 13 13 15 15 4 11 15 10 9 4 1 7 9 4 6 6 9 8 10 10 11 13 22 20 19 19 20 20 19 19 19 18 18 19
11 18 8 11 10 11 17 10 7 24 30 15 9 13 15 8 12 9 15 9 13 9 12 8 4 1 2 14 17 15 13 12 15 24 21 20 22 23 24 25 24 25 25 25
9 11 8 13 7 8 14 9 5 9 16 22 21 17 7 3 1 5 15 9 13 13 14 16 17 17 15 7 12 19 17 18 18 16 20 29 28 28 29 31 32 32 32 33
7 7 7 6 7 15 9 12 11 10 6 6 8 5 2 2 12 9 10 9 10 12 14 19 19 19 22 25 16 16 22 25 22 19 17 19 25 31 31 29 28 28 29 32
18 8 7 15 19 4 2 2 3 1 4 12 12 9 8 7 9 5 3 4 9 11 13 16 18 21 23 21 23 17 16 28 28 28 24 22 23 25 27 33 30 29 29 30
31 26 13 10 8 15 17 2 1 3 7 8 7 10 12 5 6 7 4 2 4 7 9 13 15 14 15 17 25 26 26 23 23 27 31 30 29 29 28 30 30 33 35 33
35 29 23 8 7 5 10 3 12 11 5 1 5 11 16 15 9 9 1 6 8 13 15 18 18 26 21 17 17 16 25 27 25 28 30 33 35 34 34 32 28 31 41 38
26 26 29 26 10 7 7 11 8 14 8 9 10 10 12 8 10 5 7 10 16 18 18 19 21 23 23 18 17 19 21 20 23 27 26 33 38 38 38 35 34 35 34 35
20 20 22 24 9 11 6 4 7 13 19 19 14 11 11 11 7 8 8 10 12 14 15 18 20 19 20 21 21 18 17 19 22 24 26 31 33 35 40 41 38 37 35 31
12 23 15 16 15 6 7 10 14 14 21 15 10 12 9 9 10 15 14 17 20 19 20 22 25 26 27 26 24 23 23 24 24 25 26 30 31 35 42 44 44 47 47 46
14 19 10 13 13 12 13 12 16 17 14 12 12 8 9 11 13 15 14 17 19 18 20 21 22 22 22 24 27 27 27 27 28 27 28 30 29 33 36 43 44 43 44 42
7 5 14 15 16 21 18 12 14 13 6 4 9 11 12 14 17 20 19 20 21 22 24 25 25 25 24 24 25 26 27 28 30 32 32 30 27 30 31 37 37 40 43 41
9 4 2 13 6 17 12 1 10 9 9 11 13 16 15 16 17 20 19 19 21 21 23 24 25 26 26 25 24 25 28 26 26 27 27 28 27 23 23 30 27 29 29 40
Wind_Direction
234 238 234 230 225 229 239 250 267 262 263 268 271 280 269 240 247 237 245 247 252 238 249 257 264 286 291 291 300 306 298 303 319 321 309 292 231 207 220 221 233 224 226 231
230 241 250 250 239 240 250 234 255 274 252 262 278 277 275 241 243 247 251 253 254 238 236 246 254 269 293 287 287 294 293 304 318 324 313 300 229 217 195 189 179 174 215 224
237 240 240 247 235 240 241 236 251 275 277 289 283 284 264 248 236 236 238 253 246 246 243 244 248 262 286 281 287 292 295 301 309 316 329 325 297 261 214 172 171 116 80 232
257 258 251 246 237 231 238 224 261 286 272 276 253 295 269 258 251 246 240 236 238 239 243 244 248 254 276 275 274 283 287 296 300 311 313 315 251 258 205 180 188 225 171 195
254 268 257 268 242 239 233 231 265 283 269 279 271 272 270 259 254 253 256 262 231 234 231 240 243 248 266 266 265 272 285 286 290 295 310 296 260 253 237 197 190 190 184 200
278 264 268 272 285 229 220 242 248 268 273 255 256 246 268 252 252 249 228 269 217 222 228 237 243 245 258 264 261 262 274 275 277 268 289 285 282 245 245 213 184 183 198 213
270 271 269 259 262 223 228 226 187 221 217 241 268 237 240 256 253 240 240 282 217 221 226 232 230 238 249 266 254 256 267 272 267 244 254 264 316 249 195 191 183 192 202 203
254 306 290 232 240 216 232 215 194 179 204 338 246 237 240 252 248 231 243 186 195 205 215 227 231 240 258 267 243 246 256 267 264 249 250 275 30 358 112 188 191 189 205 204
219 256 351 258 196 220 233 234 228 277 298 263 258 250 237 258 247 222 236 210 203 199 224 220 229 243 273 251 230 238 252 262 255 253 244 240 258 76 24 156 191 191 199 210
245 267 296 256 290 226 243 148 211 185 212 228 250 241 332 247 188 189 189 187 191 210 228 239 246 257 272 279 228 231 251 259 254 247 246 241 222 215 137 130 182 185 202 204
267 240 244 273 278 224 227 235 210 195 236 263 301 287 19 117 46 138 152 153 171 178 179 219 239 245 276 287 245 237 244 255 259 254 251 252 249 239 232 196 186 199 207 219
209 253 257 269 268 232 248 238 221 199 190 234 304 279 78 166 76 85 119 135 145 155 85 198 203 244 268 267 256 255 253 251 252 252 252 254 258 256 256 254 230 211 205 208
263 247 281 305 237 235 242 237 226 237 228 232 261 203 240 231 187 81 63 122 88 122 124 98 214 253 265 276 278 277 272 249 245 249 248 251 257 263 261 259 257 250 243 232
313 265 289 298 299 299 261 235 238 219 217 236 232 253 233 221 206 118 42 266 47 184 197 166 104 254 260 308 316 312 287 253 239 250 252 250 255 257 260 261 261 262 260 256
296 257 294 303 311 298 296 272 257 227 224 217 240 267 269 276 221 176 330 264 266 268 232 230 265 68 225 241 251 277 310 317 269 253 262 260 258 260 260 260 263 267 267 267
266 272 298 307 280 300 262 246 339 310 248 241 250 269 272 19 174 347 264 232 229 227 217 228 225 231 238 252 251 254 264 285 304 294 273 263 265 268 269 270 270 270 270 269
234 290 297 315 312 323 295 246 249 266 251 257 236 256 190 5 168 196 233 234 238 254 258 243 234 236 240 241 255 259 255 263 264 265 275 282 271 264 263 264 267 269 270 269
251 220 276 280 301 267 233 223 241 103 29 245 231 217 179 141 157 161 195 275 291 295 281 282 271 255 257 251 247 257 260 250 251 261 264 276 286 272 270 269 266 266 265 268
254 250 240 252 262 261 263 183 37 198 12 339 232 223 158 179 176 168 111 28 18 304 304 297 305 298 313 284 259 257 256 254 260 252 262 264 265 264 269 275 268 267 269 268
235 235 217 231 240 232 267 279 252 250 153 101 229 186 187 194 174 83 117 256 269 272 272 285 302 308 308 305 306 285 251 255 256 257 258 257 266 273 273 275 281 270 265 264
207 212 219 226 250 266 252 280 239 209 171 182 210 164 160 162 166 139 217 257 279 285 285 287 301 309 318 326 317 305 299 286 270 266 263 260 264 266 268 272 272 275 268 267
196 193 214 221 233 251 226 272 236 179 173 200 200 186 195 223 224 235 253 275 282 278 284 290 298 299 306 313 320 318 315 307 295 289 283 273 266 261 268 269 270 272 276 281
183 204 195 206 224 186 222 200 185 186 202 186 179 187 210 237 256 268 281 282 278 280 286 289 294 295 291 295 302 308 313 311 309 305 298 287 284 274 265 267 268 267 270 276
237 198 206 200 224 216 209 179 177 191 170 217 237 251 255 271 280 284 290 287 288 288 289 291 294 296 293 289 292 297 302 308 307 309 311 305 295 278 274 263 259 257 263 265
303 253 214 223 244 233 205 154 152 179 188 277 291 288 298 294 292 294 301 299 296 296 295 296 295 291 291 291 291 294 292 296 296 297 301 300 298 306 283 274 263 255 264 258
299 319 347 153 112 173 152 344 23 9 332 317 310 306 307 306 305 305 309 301 297 297 295 294 292 290 289 288 290 289 287 290 292 292 294 299 300 302 315 292 272 289 306 261
Height
3044 3047 3044 3051 3056 3059 3061 3059 3058 3060 3063 3066 3061 3059 3057 3062 3064 3065 3065 3066 3066 3066 3068 3068 3069 3068 3068 3067 3068 3067 3067 3066 3064 3061 3059 3056 3056 3056 3059 3062 3063 3067 3072 3074
3040 3039 3045 3049 3052 3056 3054 3055 3051 3052 3053 3063 3058 3054 3053 3055 3057 3059 3059 3059 3060 3062 3063 3063 3063 3065 3066 3066 3067 3066 3065 3063 3061 3059 3058 3056 3055 3055 3056 3060 3062 3066 3067 3070
3035 3041 3042 3044 3044 3047 3047 3051 3052 3054 3049 3052 3053 3048 3044 3048 3050 3051 3052 3054 3055 3056 3057 3057 3058 3060 3063 3063 3063 3063 3062 3061 3060 3057 3056 3055 3055 3055 3055 3057 3060 3062 3063 3068
3029 3034 3036 3038 3032 3040 3041 3050 3054 3052 3048 3050 3049 3046 3042 3041 3042 3043 3045 3048 3050 3052 3052 3053 3054 3056 3059 3060 3061 3061 3060 3059 3058 3056 3055 3055 3055 3055 3055 3055 3058 3062 3066 3072
3026 3029 3030 3027 3026 3031 3035 3044 3047 3046 3046 3048 3036 3046 3033 3035 3034 3035 3038 3038 3043 3045 3046 3048 3050 3054 3055 3057 3057 3058 3058 3057 3057 3056 3054 3054 3054 3053 3052 3054 3058 3062 3066 3070
3022 3027 3027 3023 3020 3023 3033 3036 3040 3043 3044 3037 3025 3039 3027 3023 3025 3027 3029 3032 3035 3039 3038 3043 3046 3048 3050 3052 3054 3056 3056 3055 3055 3055 3053 3053 3053 3054 3054 3054 3057 3061 3065 3068
3023 3022 3020 3021 3021 3022 3027 3030 3034 3039 3036 3022 3022 3024 3021 3018 3020 3022 3023 3024 3029 3032 3033 3037 3039 3042 3045 3048 3050 3052 3052 3052 3052 3053 3053 3053 3052 3053 3053 3054 3055 3059 3062 3065
3021 3022 3016 3016 3016 3020 3023 3024 3023 3023 3023 3018 3017 3011 3009 3012 3015 3018 3023 3020 3024 3027 3029 3032 3035 3038 3041 3044 3046 3048 3049 3049 3050 3051 3052 3052 3052 3051 3051 3052 3054 3057 3061 3065
3018 3020 3016 3012 3012 3019 3017 3017 3022 3023 3022 3022 3012 3008 3010 3009 3009 3014 3018 3019 3021 3024 3025 3028 3032 3034 3037 3038 3041 3044 3045 3046 3047 3049 3051 3052 3053 3052 3051 3051 3053 3054 3057 3061
3016 3017 3013 3014 3010 3012 3013 3016 3021 3020 3021 3018 3006 3006 3008 3009 3008 3011 3013 3015 3018 3021 3024 3024 3028 3030 3031 3034 3037 3040 3041 3043 3044 3046 3048 3050 3052 3053 3053 3052 3053 3054 3056 3058
3013 3015 3012 3010 3009 3010 3012 3011 3014 3015 3016 3013 3010 3005 3006 3005 3012 3010 3010 3013 3016 3020 3022 3021 3024 3027 3028 3030 3032 3036 3038 3039 3041 3043 3045 3047 3050 3052 3053 3053 3054 3054 3055 3056
3010 3010 3007 3005 3005 3004 3007 3007 3011 3011 3012 3012 3009 3007 3001 3002 3006 3012 3011 3011 3013 3015 3020 3020 3023 3025 3026 3026 3028 3030 3032 3034 3038 3039 3041 3043 3045 3048 3050 3052 3053 3054 3055 3056
3009 3008 3004 3001 3003 3004 3002 3004 3007 3010 3008 3008 3010 3005 3000 3002 3004 3006 3006 3010 3014 3017 3018 3018 3020 3022 3022 3023 3024 3025 3027 3029 3031 3035 3036 3038 3040 3042 3045 3047 3049 3051 3052 3053
3009 3006 3006 3005 3003 3001 3001 3002 3003 3004 3004 3005 3003 3003 3003 3003 3001 3002 3008 3012 3012 3013 3015 3016 3017 3017 3020 3020 3022 3023 3023 3024 3026 3029 3032 3033 3035 3037 3039 3041 3043 3045 3046 3047
3005 3002 3002 3001 3001 2998 2999 2999 2998 2998 3000 3001 3003 3003 3003 3003 3003 3003 3008 3004 3005 3009 3011 3015 3015 3016 3017 3017 3017 3018 3020 3022 3024 3024 3026 3028 3030 3032 3033 3034 3036 3038 3039 3041
3003 3001 3000 2999 2999 2999 2996 2995 2995 2996 2994 2996 3000 3000 3000 3002 3002 3004 3001 3006 3007 3008 3009 3011 3014 3013 3014 3014 3013 3013 3016 3018 3020 3020 3020 3022 3024 3025 3026 3027 3029 3030 3031 3032
3001 3000 2998 2996 2996 2994 2993 2991 2990 2993 2994 2994 2995 2997 3000 2997 2997 3002 3002 3002 3003 3003 3003 3004 3007 3010 3010 3011 3012 3011 3010 3010 3012 3014 3015 3016 3015 3017 3018 3019 3020 3021 3021 3022
2998 2999 2999 2996 2997 2994 2989 2990 2990 2992 2990 2991 2992 2993 2997 2998 2999 2998 2998 2999 3000 3000 3000 2999 3001 3005 3006 3006 3006 3007 3004 3002 3004 3006 3008 3009 3008 3008 3009 3009 3011 3012 3013 3014
2992 2995 2997 2996 2993 2991 2986 2988 2988 2989 2991 2989 2988 2989 2992 2991 2996 2997 2998 2998 2998 2995 2994 2993 2995 2998 3000 2999 3000 3001 3001 3001 2999 2999 3000 2999 2998 2999 3000 3000 3002 3003 3003 3004
2983 2987 2993 2992 2991 2987 2983 2984 2985 2987 2989 2989 2987 2986 2988 2991 2993 2995 2994 2995 2993 2992 2993 2993 2994 2996 2995 2995 2993 2993 2993 2993 2993 2994 2993 2992 2992 2992 2994 2994 2993 2992 2994 2994
2976 2981 2984 2988 2987 2982 2981 2981 2982 2984 2991 2985 2984 2984 2985 2987 2990 2993 2994 2992 2992 2992 2992 2992 2992 2991 2989 2989 2988 2987 2986 2986 2985 2986 2986 2985 2984 2983 2984 2984 2985 2985 2983 2984
2972 2978 2980 2984 2985 2984 2981 2979 2981 2980 2979 2979 2979 2983 2986 2988 2992 2991 2991 2990 2991 2992 2990 2989 2988 2987 2985 2984 2982 2981 2980 2979 2978 2977 2976 2976 2976 2974 2974 2976 2976 2976 2974 2974
2970 2971 2973 2977 2978 2978 2976 2976 2976 2975 2975 2976 2981 2983 2985 2987 2988 2986 2987 2986 2987 2986 2986 2984 2982 2981 2980 2978 2977 2975 2974 2973 2971 2970 2967 2966 2965 2963 2962 2964 2964 2964 2965 2964
2965 2967 2971 2974 2973 2973 2973 2972 2973 2974 2972 2976 2980 2982 2982 2983 2982 2982 2983 2982 2981 2981 2980 2979 2977 2976 2974 2973 2970 2968 2967 2966 2964 2962 2960 2958 2956 2953 2952 2951 2952 2953 2953 2952
2967 2965 2966 2969 2968 2969 2970 2969 2967 2971 2974 2975 2977 2978 2978 2977 2977 2976 2977 2976 2975 2974 2972 2971 2970 2969 2968 2966 2964 2962 2960 2958 2957 2955 2953 2951 2948 2945 2943 2942 2940 2939 2941 2936
2962 2963 2961 2960 2963 2962 2964 2966 2966 2969 2972 2974 2973 2972 2972 2971 2970 2969 2969 2969 2968 2967 2965 2964 2962 2961 2960 2959 2957 2955 2953 2951 2950 2949 2947 2944 2942 2939 2937 2935 2930 2930 2928 2925